{"data":{"norad_id":49216,"epoch":"2026-09-19T20:47:16.420128Z","epoch_age_seconds":80461,"freshness":"FRESH","line1":"1 49216U 21083AG  26262.86616227  .00000265  00000+0  69041-3 0  9997","line2":"2 49216  87.8912 301.3929 0001656  86.8724 273.2594 13.13469086243450","mean_motion":13.13469086,"eccentricity":0.0001656,"inclination_deg":87.8912,"raan_deg":301.3929,"arg_perigee_deg":86.8724,"mean_anomaly_deg":273.2594,"bstar":0.00069041,"rev_number":24345,"period_min":109.63333780358,"perigee_km":1208.5123627942,"apogee_km":1211.0254772349,"semimajor_km":7587.9059200146,"source":"CELESTRAK","updated_at":"2026-09-20T09:00:44.667078Z"}}